Погода в Нолинске

Погода в Нолинске : погода сейчас, прогноз погоды и архив. Всё, что Вы хотите узнать о погоде в Нолинске!

Хотите узнать прогноз погоды в Нолинске? Тогда Вам сюда: Погода в Нолинске

Поиск расширенной информации на нашем сайте:

Другие новости

Новости СМИ2

Главная страница сайта

Новости сайта

03.07.2017

Напоминаем, что на нашем специализированном сайте Метеоцентр.Азия вы можете получить высокодетализированные автоматические прогнозы погоды по пунктам России, СНГ и мира в авиационном формате (включающие направление и скорость ветра, видимость, явления погоды, количество и форму облачности, нижнюю и верхнюю границу облачности).

Рекомендуем: Мобильные конструкции в аренду. Мобильные выставочные стенды конструкции.

Погода в Нолинске - сегодня

Время (UTC), дата Ветер
(°,м/с) 
Видим.   Явления Облачность Т
(°С)
Тd
(°С)
f(%) Тe
(°С)
Pmin
(гПа)
dP
(гПа)
Po
(мм)
O2
(г/м3)
Тmin Tmax R s Состояние
почвы
03 11.06.18 250 (З) 2-3{03}  20000 м    8/0 средняя, верхняя 
[Ac trans|Ci fib]
+4.6 +2.9 89 +4  1009.6  0.7  745  295  +1.6    0.4    влажная 
15 11.06.18 280 (З) 5-7{08}  20000 м    8/6 600 м кучево-дожд., средняя 
[Cb cap|Ac trans]
+13.5 +1.7 45 +13  1008.8  -0.4  745  286    +14.1  0.0     
03 12.06.18 220 (ЮЗ) 4-6{06}  20000 м    10/9 600 м средняя 
[Sc|Ac trans]
+7.9 +3.2 72 +7  1009.1  -0.3  745  291  +6.4    0.0    влажная 
15 12.06.18 230 (ЮЗ) 7-13{13}  20000 м    10/9 600 м средняя 
[Cu Sc|Ac trans]
+16.4 +8.6 60 +16  1004.1  -1.6  741  280    +17.9       
03 13.06.18 190 (Ю) 6-8{11}  10 км  слаб. ливневой дождь  10/10 300 м кучево-дожд. 
[Cb cap]
+12.4 +10.5 88 +13  998.4  -2.6  737  282  +11.6      мокрая 
15 13.06.18 220 (ЮЗ) 4-6{12}  20000 м  {ливн. осадки}  10/10 300 м 
[St]
+14.7 +13.2 91 +21  997.9  0.5  737  279    +16.4     
03 14.06.18 300 (СЗ) 3-6{07}  20000 м    10/9 300 м средняя 
[St|Ac und]
+9.1 +7 87 +9  1007.2  2.4  743  289  +8.2      мокрая 
15 14.06.18 320 (СЗ) 4-6{09}  20000 м    6/6 600 м 
[Cu med, cong]
+12.4 +3.4 54 +12  1012.8  1.5  748  288    +13.6  0.4     
03 15.06.18 300 (СЗ) 2-3{04}  20000 м    ясно 
+8.2 +3 70 +8  1016.8  0.6  750  293  +5.7        влажная 
15 15.06.18 320 (СЗ) 5-7{11}  20000 м    6/6 600 м кучево-дожд. 
[Cb cap]
+13.3 -0.5 39 +13  1016.5  -0.1  750  288    +13.9       
03 16.06.18 250 (З) 2-3{04}  20000 м    ясно 
+9.2 +2.7 64 +9  1017.2  0.2  751  292  +4.8        влажная 
15 16.06.18 340 (С) 5-8{09}  20000 м    3/1 600 м верхняя 
[Cu hum|Ci fib]
+19.1 +1.7 31 +19  1016  -0.2  750  282    +19.4       
03 17.06.18 300 (СЗ) 1-3{04}  20000 м    1/0 верхняя 
[Ci fib]
+14.4 +4.5 51 +16  1016  -0.2  750  286  +9.8        сухая 
15 17.06.18 020 (С) 3-5{11}  20000 м    4/4 600 м 
[Sc diur, vesp]
+22.4 +3.6 29 +22  1013.2  -0.6  748  278    +22.6       
03 18.06.18 240 (ЮЗ) 2-3{03}  20000 м    6/0 средняя, верхняя 
[Ac cast|Ci fib]
+13.4 +7.7 68 +14  1014.1  749  286  +9.7        сухая 
15 18.06.18 010 (С) 2-5{10}  20000 м    1/1 1000 м 
[Cu hum]
+25.4 +4 25 +25  1010.4  -0.7  746  274    +25.9       
21 18.06.18 230 (ЮЗ) 3-4{04}  20000 м    ясно 
+13.3 +8.8 74 +13  1010.8  0.1  746  285           
03 19.06.18 210 (ЮЗ) 1-2{03}  20000 м    4/0 средняя 
[Ac trans]
+15.3 +11.2 77 +20  1010.2  0.1  746  282  +10.7        сухая 
15 19.06.18 270 (З) 4-6{07}  20000 м    8/6 600 м средняя 
[Cu med, cong|Ac trans]
+25.8 +11 40 +28  1005.6  -1.1  743  271    +27.8       
03 20.06.18 230 (ЮЗ) 4-6{06}  20000 м    6/0 средняя, верхняя 
[Ac trans|Ci fib]
+17 +12.7 76 +22  1001.2  -2.1  739  278  +13.2        сухая 
15 20.06.18 290 (З) 6-9{14}  20000 м  в посл. час ливневой дождь  8/6 600 м кучево-дожд., средняя 
[Cb cap|Ac trans]
+13.5 +9.5 77 +14  998.2  737  281    +19.4  12     
03 21.06.18 270 (З) 8-13{13}  20000 м    8/6 600 м кучево-дожд., средняя 
[Cb cap|Ac trans]
+11.8 +7.4 74 +10  997.5  -1.4  736  283  +9.4      влажная 
15 21.06.18 290 (З) 6-12{14}  20000 м  слаб. ливневой дождь  10/8 300 м кучево-дожд., средняя 
[Cb cap|Ac und]
+12 +9.2 83 +11  1000.6  1.4  739  283    +12.7  11     
03 22.06.18 330 (СЗ) 4-7{08}  20000 м    6/0 средняя, верхняя 
[Ac cast|Ci fib]
+14.6 +9.3 70 +14  1005.7  1.4  742  282  +12    0.0    влажная 
15 22.06.18 310 (СЗ) 3-6{12}  20000 м    10/0 верхняя 
[Ci fib]
+22.2 +6.8 37 +22  1009.3  0.2  745  277    +23.1       
Время (UTC), дата Ветер
(°,м/с) 
Видим.   Явления Облачность Т
(°С)
Тd
(°С)
f(%) Тe
(°С)
Pmin
(гПа)
dP
(гПа)
Po
(мм)
O2
(г/м3)
Тmin Tmax R s Состояние
почвы

Для получения пояснительной информации подведите курсор к названию столбца.

ПОГОДА в Нолинске - архив

Всё, что Вы хотите узнать о погоде в Нолинске - удобно и подробно!

Выберите нужную дату (начиная с 1 января 2015* года) и нажмите кнопку "Найти".
Будут отображены архивные сводки погоды по пункту Нолинск, начиная с указанной даты.


Отображать данные в формате CSV (для использования в таблицах Excel)


Внимание! Наш архив погоды предназначен исключительно для личного некоммерческого использования в познавательных целях. Если Вам необходимы официальные справки о состоянии погоды (для производственных, юридических, коммерческих и т.п. целей), обращайтесь в органы Росгидромета.

*Примечание: данная дата относится к архиву по метеостанциям СССР (Россия, СНГ, Балтия).
Архив по метеостанциям Зарубежной Европы и Азии (кроме Китая) хранится 10 дней, по другим регионам земного шара (Китай, Африка, Америка, Австралия, Океания) - 1 день.

Нолинск - район местоположения метеостанции


Название, широта, долгота, высота метеостанции:
Нолинск 57.6°ш. 49.9°д. 136 м над ур. моря [Российская Федерация]

Дополнительная информация

В oтличие oт бoльшинства пoгoдных сайтoв мы публикуем пoдрoбную метеoинфoрмацию в детальнoм прoфессиoнальнoм фoрмате.

Характеристики температуры и влажнoсти вoздуха измеряются на высoте 2 м в тени вдали oт зданий и деревьев.
Скoрoсть ветра измеряется на высoте 10 м (на урoвне рoста челoвека скoрoсть ветра ниже в 1.5-2 раза). Если метеoстанция нахoдится в гoрoде или в лесу, тo скoрoсть ветра занижена на 2-4 м/с пo сравнению с oткрытым местoм. Скoрoсть ветра над акватoриями крупных рек и oзёр, а также на вершинах хoлмoв на 2-5 м/с выше, чем в oбычных услoвиях.
Атмoсфернoе давление в разных тoчках местнoсти мoжет значительнo oтличаться oт давления на метеoстанции, в зависимoсти oт услoвий рельефа (при пoдъёме на 10 м давление пoнижается примернo на 1 мм рт.ст.).